Regional Weather Roundup
Issued by NWS

Home | Current Version | Previous Version | Text Only | Print | Product List | Glossary On
Versions: 1 2 3 4 5 6 7 8 9 10 11 12 13 14 15 16 17 18 19 20 21 22 23 24 25 26 27 28 29 30 31 32 33 34 35 36 37 38 39 40 41 42 43 44 45 46 47 48 49 50
000
ASUS43 KOAX 221510
RWRNE

WEATHER ROUNDUP FOR NEBRASKA
NATIONAL WEATHER SERVICE OMAHA NE
1000 AM CDT SUN OCT 22 2017

NOTES: SATELLITE DATA IS BEING USED TO AUGMENT CLOUD COVER ABOVE
       12000 FEET.
       "FAIR" INDICATES FEW OR NO CLOUDS BELOW 12,000 FEET WITH NO
       SIGNIFICANT WEATHER AND/OR OBSTRUCTIONS TO VISIBILITY.


NEZ001>004-019>022-054>056-221600-
NEBRASKA PANHANDLE

CITY           SKY/WX    TMP DP  RH WIND       PRES   REMARKS
SCOTTSBLUFF    SUNNY     52  25  35 W6        30.10R
ALLIANCE       SUNNY     47  24  40 S9        30.08R
CHADRON        SUNNY     44  19  36 SW6       30.04R
GORDON         FAIR      41  24  51 SW12      30.04S
KIMBALL        SUNNY     51  21  31 SW12      30.15S
SIDNEY         SUNNY     45  20  36 SW14      30.15R
$$

NEZ057>060-069>072-079>082-221600-
SOUTHWEST NEBRASKA

CITY           SKY/WX    TMP DP  RH WIND       PRES   REMARKS
NORTH PLATTE   SUNNY     39  31  72 W5        30.16S
IMPERIAL       SUNNY     43  25  49 SW12      30.18S
LEXINGTON      SUNNY     40  32  74 W3        30.16R
MCCOOK         SUNNY     42  28  57 W12       30.18S
OGALLALA       SUNNY     40  26  58 W6        30.16S
$$

NEZ005>010-023>029-035>040-094-221600-
NORTH CENTRAL NEBRASKA

CITY           SKY/WX    TMP DP  RH WIND       PRES   REMARKS
VALENTINE      SUNNY     42  29  59 SW15      30.05R
AINSWORTH      SUNNY     44  29  55 SW12      30.07R
BROKEN BOW     SUNNY     45  33  63 W10       30.12R
O`NEILL        SUNNY     47  37  66 SW7       30.08S
ORD            SUNNY     42  37  82 CALM      30.10F
THEDFORD       SUNNY     45  29  53 SW8       30.11R
$$

NEZ041-046>049-061>064-073>077-083>087-221600-
SOUTH CENTRAL NEBRASKA

CITY           SKY/WX    TMP DP  RH WIND       PRES   REMARKS
GRAND ISLAND   SUNNY     48  35  60 SW6       30.14R
AURORA         SUNNY     50  40  69 SW6       30.13S
HASTINGS       SUNNY     47  33  58 SW6       30.16R
HEBRON         SUNNY     49  40  71 CALM      30.16R
HOLDREGE       SUNNY     44  33  65 W8        30.15S
KEARNEY        SUNNY     46  30  53 SW7       30.15S
YORK           SUNNY     50  41  71 W8        30.14R
$$

NEZ011>018-030>034-042>045-221600-
NORTHEAST NEBRASKA

CITY           SKY/WX    TMP DP  RH WIND       PRES   REMARKS
NORFOLK        SUNNY     45  37  73 CALM      30.09F
ALBION         SUNNY     47  38  71 SW6       30.11S
BLAIR          SUNNY     49  39  66 W6        30.12R
COLUMBUS       SUNNY     45  36  70 SW5       30.13R
FREMONT        SUNNY     48  39  71 W6        30.13R
TEKAMAH        SUNNY     52  37  56 W6        30.11R
WAYNE          SUNNY     47  38  69 CALM      30.09S
$$

NEZ050>053-065>068-078-088>093-221600-
SOUTHEAST NEBRASKA

CITY           SKY/WX    TMP DP  RH WIND       PRES   REMARKS
LINCOLN        SUNNY     51  39  63 CALM      30.16R
OMAHA EPPLEY   MOSUNNY   50  39  66 CALM      30.12R
BEATRICE       SUNNY     49  41  72 NW3       30.15R
FALLS CITY     SUNNY     51  41  68 NW10      30.13R
NEBRASKA CITY  SUNNY     53  41  65 NW5       30.13R
PLATTSMOUTH    SUNNY     51  39  64 W6        30.13R
$$

NEZ044-045-051>053-067-221600-
OMAHA AREA

CITY           SKY/WX    TMP DP  RH WIND       PRES   REMARKS
OMAHA EPPLEY   MOSUNNY   50  39  66 CALM      30.12R
BLAIR          SUNNY     49  39  66 W6        30.12R
FREMONT        SUNNY     48  39  71 W6        30.13R
MILLARD        SUNNY     52  40  64 NW5       30.13R
OFFUTT AFB     SUNNY     49  40  70 CALM      30.12R
PLATTSMOUTH    SUNNY     51  39  64 W6        30.13R
WAHOO          FAIR      52  35  51 W3        30.13R
$$




USA.gov is the U.S. government's official web portal to all federal, state and local government web resources and services.